Weather History for Worland, WY

Change the Weather History Date:

Thursday, May 9, 2013

  Actual Average Record
Temperature  
Mean Temperature 58 °F 53 °F  
Max Temperature 75 °F 68 °F 88 °F (1977)
Min Temperature 41 °F 39 °F 20 °F (2002)
Degree Days  
Heating Degree Days 7 12  
Month to date heating degree days 124 120  
Since 1 July heating degree days 7303 7587  
Cooling Degree Days 0 0  
Month to date cooling degree days 0 0  
Year to date cooling degree days 0 1  
Growing Degree Days 8 (Base 50)    
Moisture  
Dew Point 35 °F    
Average Humidity 47    
Maximum Humidity 76    
Minimum Humidity 17    
Precipitation  
Precipitation 0.00 in 0.04 in 0.64 in (1992)
Month to date precipitation 0.42 0.38  
Year to date precipitation 1.99 2.12  
Sea Level Pressure  
Sea Level Pressure 30.05 in    
Wind  
Wind Speed 5 mph (ESE)    
Max Wind Speed 23 mph    
Max Gust Speed 30 mph    
Visibility 10 miles    
Events      
T = Trace of Precipitation, MM = Missing Value Source: NWS Daily Summary

Daily Weather History Graph

Daily Weather History Graph

Search for Another Location

Airport:

Trip Planner

Search our weather history database for the weather conditions in past years. The results will help you decide how hot, cold, wet, or windy it might be!

Date:

Astronomy

May. 09, 2013 Rise Set
Actual Time 5:52 AM MDT 8:24 PM MDT
Civil Twilight 5:19 AM MDT 8:57 PM MDT
Nautical Twilight 4:38 AM MDT 9:38 PM MDT
Astronomical Twilight 3:52 AM MDT 10:25 PM MDT
Moon 5:39 AM MDT (5/9) 8:22 PM MDT (5/9)
Length of Visible Light 15h 37m
Length of Day
14h 32m
Waning Crescent, 0% of the Moon is Illuminated
May 9
Waning Crescent
May 9
New
May 17
First Quarter
May 24
Full
May 31
Last Quarter

Hourly Weather History & Observations

Time (MDT) Temp. Windchill Dew Point Humidity Pressure Visibility Wind Dir Wind Speed Gust Speed Precip Events Conditions
12:53 AM 48.0 °F - 35.1 °F 61% 30.04 in 10.0 mi South 4.6 mph - N/A   Clear
1:53 AM 46.0 °F 43.9 °F 35.1 °F 66% 30.04 in 10.0 mi South 4.6 mph - N/A   Clear
2:53 AM 42.1 °F - 36.0 °F 79% 30.06 in 10.0 mi Calm Calm - N/A   Clear
3:53 AM 43.0 °F 41.3 °F 35.1 °F 74% 30.06 in 10.0 mi East 3.5 mph - N/A   Clear
4:53 AM 44.1 °F 39.5 °F 35.1 °F 71% 30.08 in 10.0 mi South 8.1 mph - N/A   Clear
5:53 AM 42.1 °F - 35.1 °F 76% 30.09 in 10.0 mi Calm Calm - N/A   Clear
6:53 AM 46.0 °F 41.9 °F 37.0 °F 71% 30.09 in 10.0 mi South 8.1 mph - N/A   Clear
7:53 AM 52.0 °F - 37.9 °F 59% 30.09 in 10.0 mi Calm Calm - N/A   Clear
8:53 AM 57.0 °F - 37.0 °F 47% 30.10 in 10.0 mi Calm Calm - N/A   Clear
9:53 AM 61.0 °F - 37.9 °F 42% 30.09 in 10.0 mi Calm Calm - N/A   Clear
11:53 AM 68.0 °F - 34.0 °F 28% 30.06 in 10.0 mi Calm Calm - N/A   Clear
12:53 PM 71.1 °F - 32.0 °F 24% 30.04 in 10.0 mi NNW 4.6 mph - N/A   Clear
1:53 PM 72.0 °F - 28.0 °F 20% 30.04 in 10.0 mi Variable 3.5 mph - N/A   Clear
2:53 PM 73.0 °F - 27.0 °F 18% 30.02 in 10.0 mi NNE 9.2 mph - N/A   Partly Cloudy
3:53 PM 73.9 °F - 27.0 °F 18% 30.00 in 10.0 mi North 8.1 mph - N/A   Partly Cloudy
4:53 PM 71.1 °F - 32.0 °F 24% 29.99 in 10.0 mi East 11.5 mph 18.4 mph N/A   Mostly Cloudy
5:53 PM 72.0 °F - 33.1 °F 24% 29.99 in 10.0 mi East 12.7 mph - N/A   Mostly Cloudy
6:53 PM 68.0 °F - 36.0 °F 31% 30.01 in 10.0 mi North 9.2 mph - N/A   Overcast
7:53 PM 64.9 °F - 37.0 °F 36% 30.00 in 10.0 mi Calm Calm - N/A   Overcast
8:53 PM 57.9 °F - 39.0 °F 49% 30.02 in 10.0 mi Calm Calm - N/A   Clear
9:53 PM 59.0 °F - 37.0 °F 44% 30.04 in 10.0 mi SSE 11.5 mph 17.3 mph N/A   Clear
11:53 PM 54.0 °F - 39.9 °F 59% 30.06 in 10.0 mi South 9.2 mph - N/A   Clear